GEFSSGP_con_prob3kmehi_102.txt.gz
EHI
4 10 17 16 7 3 2 1 1 1 1 0 1 3 6 10 9 6 13 39 65 66 54 45 32 17 8 6 6 5 2 0 0 0 0 0 0 0 0 0 0 0 0 0 0 0 0 0 0
4 9 13 10 6 3 1 1 2 2 1 0 1 4 8 11 11 11 23 48 63 56 45 41 33 21 11 7 7 5 2 0 0 0 0 0 0 0 0 0 0 0 0 0 0 0 0 0 0
4 6 5 5 4 2 0 1 2 2 1 0 1 5 11 14 15 20 33 52 56 46 42 43 37 25 13 7 7 5 2 0 0 0 0 0 0 0 0 1 1 1 1 0 0 0 0 0 0
4 2 1 2 2 1 0 0 1 1 0 0 4 11 18 21 22 27 37 48 50 43 41 44 40 28 13 6 5 3 1 0 0 0 0 0 0 0 1 2 2 2 1 0 0 0 0 0 0
2 1 0 0 0 0 0 0 0 0 0 1 8 21 30 28 27 30 35 41 44 40 37 40 39 29 15 7 3 2 1 0 0 0 0 0 0 0 1 1 2 1 1 0 0 0 0 0 0
1 0 0 0 0 0 0 0 0 0 1 1 10 27 38 34 29 30 31 32 36 37 35 34 33 27 16 8 3 1 0 0 0 0 0 0 0 0 0 0 0 1 1 1 0 0 0 0 0
0 0 0 0 0 0 0 0 0 0 1 1 9 30 45 42 37 33 29 28 34 38 34 25 21 19 13 7 3 0 0 0 0 0 0 0 0 0 0 0 0 1 2 2 1 0 0 0 0
0 0 0 0 0 0 0 0 0 0 0 2 12 36 55 52 43 37 32 32 39 42 31 17 11 10 7 4 3 1 1 1 0 0 0 0 0 0 0 0 0 2 3 2 1 0 0 0 0
0 0 0 0 0 0 0 0 0 0 1 8 24 46 58 54 45 42 41 43 50 48 30 14 10 7 5 4 3 2 2 1 0 0 0 0 0 0 1 2 2 1 2 1 0 0 0 0 0
0 0 0 0 0 0 0 0 0 1 6 20 41 56 56 50 48 48 49 53 59 54 33 20 19 15 10 8 6 5 4 2 1 0 0 0 1 2 3 5 3 1 0 0 0 0 0 0 0
0 0 0 0 0 0 0 0 0 3 13 30 51 61 56 50 51 52 53 57 62 56 41 34 36 32 26 21 13 10 9 6 4 3 2 1 2 5 7 7 5 2 1 1 0 0 0 0 0
0 0 0 0 0 0 0 0 1 6 17 30 46 57 54 48 48 53 57 60 62 58 52 51 53 52 49 38 25 18 14 12 11 11 9 6 6 10 13 12 8 5 3 2 1 1 1 1 1
0 0 0 0 0 0 0 0 2 8 16 24 34 47 50 44 45 53 62 65 63 60 61 64 64 64 62 54 41 31 26 23 22 20 17 11 10 13 14 13 9 6 5 4 2 2 2 2 2
0 0 0 0 0 0 0 0 2 8 15 20 26 38 46 44 45 53 62 66 64 63 65 66 66 65 64 60 51 42 34 30 25 23 19 13 11 12 10 8 7 6 6 5 3 2 2 2 3
0 0 0 0 0 0 0 1 4 10 15 18 24 36 44 47 49 53 58 61 63 64 64 60 58 60 63 59 51 39 30 24 22 20 18 13 9 8 7 5 6 8 9 7 5 4 3 2 1
0 0 0 0 0 0 0 4 10 13 14 17 25 36 46 50 52 54 56 56 58 60 59 55 53 57 60 58 49 35 26 22 19 19 16 11 6 3 4 5 5 7 8 8 7 5 4 1 0
0 0 0 0 0 0 1 5 12 14 14 18 27 39 49 51 51 52 52 50 50 52 54 53 55 57 56 54 47 36 30 24 20 19 15 8 4 2 3 4 3 3 5 6 6 5 3 0 0
0 0 0 0 0 0 1 5 10 13 14 19 30 43 51 51 49 48 47 45 44 46 48 51 55 56 53 48 41 33 27 24 21 19 13 6 3 3 3 3 2 0 1 3 4 3 1 0 0
0 0 0 0 0 0 1 4 9 11 13 17 30 44 52 51 46 43 41 41 43 44 43 45 50 51 48 42 35 29 24 21 19 16 12 6 2 2 3 3 1 0 1 1 2 1 0 0 0
0 0 0 0 0 0 2 5 9 11 12 16 26 39 47 48 46 42 38 38 41 43 40 40 44 43 39 36 33 29 24 19 16 15 10 4 1 2 3 3 1 0 1 1 0 0 0 0 0
0 0 0 0 0 0 2 5 9 11 14 17 21 28 36 41 42 41 38 35 36 38 35 34 38 36 32 32 32 29 24 17 14 15 10 4 1 1 2 3 1 0 1 2 1 0 0 0 0
0 0 0 0 0 0 1 3 7 10 14 16 17 21 26 32 37 38 36 33 34 34 32 31 34 34 31 31 31 27 18 13 15 17 15 8 2 0 2 2 2 1 1 3 3 1 0 0 0
0 0 0 0 0 0 0 1 4 9 13 13 13 16 22 27 32 34 34 34 33 32 33 35 38 39 36 34 31 23 14 15 19 22 22 15 4 1 2 3 3 3 2 3 3 2 1 0 0
0 0 0 0 0 0 0 0 2 7 11 10 10 14 19 24 28 32 35 35 33 33 36 41 44 44 41 36 29 22 18 22 26 27 24 15 5 3 4 5 5 4 3 3 3 3 1 1 0
0 0 0 0 0 0 0 0 1 4 7 8 8 11 14 19 26 31 35 36 35 36 39 43 45 45 41 36 30 25 24 25 26 25 20 11 4 6 9 10 8 6 3 3 4 4 3 2 1
0 0 0 0 0 0 0 0 1 2 3 4 6 6 7 13 23 30 34 36 36 39 41 43 43 42 39 36 33 30 26 23 20 19 13 7 4 10 18 18 12 8 4 5 5 5 4 3 3
0 0 0 0 0 0 0 0 1 3 2 2 3 3 3 8 17 28 34 35 36 39 43 46 45 43 39 38 37 33 27 21 18 16 11 7 8 15 22 21 14 9 6 6 6 5 4 3 3
0 0 0 0 0 0 0 0 1 4 4 2 1 2 3 6 13 23 32 36 37 41 46 49 48 44 41 41 38 33 28 24 22 19 16 15 16 20 22 19 15 11 8 7 6 4 3 3 3
0 0 0 0 0 0 0 0 1 3 3 1 0 2 4 8 11 19 29 35 38 42 46 49 49 47 45 45 42 37 35 32 29 27 26 26 26 25 22 19 16 14 10 8 6 4 3 2 2
0 0 0 0 0 0 0 0 0 1 1 1 0 2 6 10 11 16 27 35 39 42 45 48 49 49 49 49 48 44 41 39 35 33 33 33 32 28 23 20 18 15 11 8 6 4 2 1 1

GEFSSGP_con_prob3kmehi_108.txt.gz
EHI
8 4 1 0 1 0 0 0 0 1 2 4 8 13 12 6 4 5 7 19 39 48 44 44 46 37 24 12 6 4 3 2 1 0 0 0 0 0 0 0 0 0 0 0 0 0 0 0 0
4 2 0 0 1 0 0 0 0 2 4 8 14 18 13 7 6 8 13 27 47 54 49 48 52 43 26 14 7 4 2 1 0 0 0 0 0 0 0 0 0 0 0 0 0 0 0 0 0
1 0 0 0 0 0 0 0 1 3 7 15 23 22 15 10 11 15 25 43 58 60 55 57 61 51 31 16 7 3 1 0 0 0 0 0 0 0 0 0 0 0 0 0 0 0 1 1 1
0 0 0 0 0 0 0 1 2 5 11 23 32 28 18 19 27 34 43 57 68 68 63 65 66 55 35 17 8 4 1 0 0 0 0 0 0 0 0 0 0 0 0 0 0 0 1 1 0
0 0 0 0 1 0 0 1 4 8 16 31 41 34 26 35 53 60 61 66 73 75 70 68 66 55 36 18 8 5 1 0 0 0 0 0 0 0 0 0 0 0 0 0 0 0 0 0 0
0 0 0 0 0 0 0 2 6 11 20 34 44 40 35 50 71 75 69 68 74 78 74 67 60 49 32 16 8 4 1 0 0 0 0 0 0 0 0 0 0 0 0 0 0 0 0 0 0
0 0 0 0 0 0 0 2 6 13 22 34 44 44 43 55 73 76 70 67 71 76 74 64 51 36 23 12 5 2 1 0 0 0 0 0 0 0 0 0 0 0 0 0 0 0 0 0 1
0 0 0 0 0 0 0 2 7 16 27 37 45 47 49 59 70 73 69 67 69 69 66 58 43 27 16 9 3 1 0 0 0 0 0 0 0 0 0 0 0 0 0 0 0 0 0 0 1
0 0 0 0 0 0 0 2 9 23 38 45 47 52 59 67 72 73 70 68 66 60 54 47 36 23 13 7 4 1 0 0 0 0 0 0 0 0 0 0 0 0 0 0 0 0 0 0 1
0 0 0 0 0 0 0 2 10 26 42 50 53 57 64 70 71 71 69 65 59 51 43 35 28 20 11 7 5 3 1 0 0 0 0 0 0 0 0 0 0 0 0 0 0 0 0 0 0
0 0 0 0 0 0 0 2 9 21 35 49 57 59 60 62 65 65 63 57 51 45 36 26 21 16 10 7 6 4 2 1 0 0 0 0 0 0 0 0 0 0 0 0 0 0 0 0 0
0 0 0 0 0 0 1 3 9 19 31 47 58 57 52 54 58 59 56 51 44 39 30 20 13 10 8 6 5 3 2 1 0 0 0 0 0 0 0 0 0 0 0 0 0 0 0 0 0
0 0 0 0 0 1 2 4 12 25 39 50 55 53 49 49 52 53 51 47 40 34 28 18 9 6 5 4 3 2 1 0 0 0 0 0 0 0 0 0 0 0 0 0 0 0 0 0 0
0 0 0 0 0 1 2 4 12 30 46 51 48 46 45 46 49 50 48 46 42 37 32 23 13 9 7 5 3 2 2 1 0 0 0 0 0 0 0 0 0 0 0 0 0 0 0 0 0
0 0 0 0 0 0 1 2 12 32 47 46 41 40 41 42 46 48 47 47 47 43 38 30 21 15 10 7 4 3 3 2 0 0 0 0 0 0 0 0 0 0 0 0 0 0 0 0 0
0 0 0 0 0 0 0 2 12 32 46 45 40 38 38 37 39 43 45 48 48 44 39 34 28 21 16 11 6 4 3 2 1 0 0 0 0 0 0 0 0 0 0 0 0 0 0 0 0
0 0 0 0 0 0 0 2 11 30 45 47 42 38 37 35 33 36 41 45 45 42 38 36 33 27 21 14 8 5 3 2 1 1 0 0 0 0 0 0 0 0 0 0 0 0 0 0 0
0 0 0 0 0 0 0 3 11 27 41 44 41 37 34 32 31 31 36 40 40 39 37 36 34 29 22 15 11 7 3 2 2 1 0 0 0 0 0 0 0 0 0 0 0 0 0 0 0
0 0 0 0 0 0 0 3 9 20 30 35 35 34 31 29 28 28 31 35 37 37 37 36 33 27 20 15 11 7 3 2 1 1 0 0 0 0 0 0 0 0 0 0 0 0 0 0 0
0 0 0 0 0 0 1 2 6 11 15 21 27 29 28 26 24 23 27 31 33 33 33 32 29 24 17 13 9 6 3 1 1 0 0 0 0 0 0 0 0 0 0 0 0 0 0 0 0
0 0 0 0 1 1 1 2 3 4 6 11 18 24 27 25 22 20 23 26 28 27 28 27 25 21 15 10 8 6 3 1 1 0 0 0 0 0 0 0 0 0 0 0 0 0 0 0 0
0 0 0 0 0 0 0 0 1 1 3 7 12 19 25 25 22 20 21 22 24 24 25 25 22 17 13 9 7 6 4 1 0 0 0 0 0 0 0 0 0 0 0 0 0 0 0 0 0
0 0 0 0 0 0 0 0 0 0 2 4 8 13 20 24 22 20 20 22 24 24 24 24 20 16 13 9 6 4 3 1 0 0 0 0 0 0 0 0 0 0 0 0 0 0 0 0 0
0 0 0 0 0 0 0 0 0 0 1 2 4 9 17 23 24 21 21 22 24 24 23 22 19 15 13 10 5 3 2 1 0 0 0 0 0 0 0 0 0 0 0 0 0 0 0 0 0
0 0 0 0 0 0 0 0 0 0 0 1 2 7 16 24 25 23 22 23 25 26 24 21 19 16 14 10 7 4 3 1 0 0 0 0 0 0 0 0 0 0 0 0 0 0 0 0 0
0 0 0 0 0 0 0 0 0 0 0 0 1 6 15 22 25 24 24 25 26 27 25 20 17 17 14 11 8 6 4 1 0 0 0 0 0 0 0 0 0 0 0 0 0 0 0 0 0
0 0 0 0 0 0 0 0 0 0 0 0 1 6 13 19 22 23 24 27 28 27 23 20 17 15 13 12 9 7 5 3 1 0 0 0 0 0 0 0 0 0 0 1 1 1 0 0 0
0 0 0 0 0 0 0 0 0 0 0 0 1 5 10 14 18 22 24 26 26 23 21 21 19 14 12 11 10 8 6 3 1 1 0 0 0 0 0 0 0 0 1 2 2 2 1 0 0
0 0 0 0 0 0 0 0 0 0 0 0 1 3 6 10 15 20 23 23 23 21 21 22 20 16 13 12 11 10 7 4 3 2 1 0 0 0 0 0 0 0 1 2 3 3 2 1 0
0 0 0 0 0 0 0 0 0 0 0 0 1 2 4 8 13 19 22 22 23 23 23 23 21 18 16 13 11 10 8 5 3 3 2 1 0 0 0 0 0 0 0 1 3 3 3 2 1

GEFSSGP_con_prob3kmehi_114.txt.gz
EHI
0 0 0 0 0 0 0 0 0 0 0 0 1 0 0 0 0 0 2 12 31 39 29 23 30 35 35 35 36 33 24 16 11 8 5 3 1 0 0 0 0 0 0 0 0 0 0 0 0
0 0 0 0 0 0 0 0 0 0 0 1 2 1 0 1 2 1 3 16 36 43 33 28 33 36 34 34 33 30 22 14 9 6 4 3 1 0 0 0 0 0 0 0 0 0 0 0 0
0 0 0 0 0 0 0 0 0 0 1 2 4 3 1 2 4 5 9 26 45 47 37 34 37 36 33 32 30 25 18 11 6 4 3 2 1 0 0 0 0 0 0 0 0 0 0 0 0
0 0 0 0 0 0 0 0 1 1 1 4 9 8 3 3 7 12 21 38 53 50 37 36 41 38 34 32 27 20 13 8 4 3 3 2 1 0 0 0 0 0 0 0 0 0 0 0 0
0 0 0 0 0 0 0 2 2 2 4 10 16 15 8 8 17 27 35 46 57 54 40 38 43 42 37 32 24 16 10 5 3 3 3 2 1 0 0 0 0 0 0 0 0 0 0 0 0
0 0 0 0 0 0 1 4 5 5 11 19 24 21 15 18 33 44 48 52 60 60 49 42 43 41 38 33 24 14 8 4 3 3 2 1 0 0 0 0 0 0 0 0 0 0 0 0 0
0 0 0 0 0 0 1 3 5 9 19 28 31 26 20 26 44 56 60 63 66 65 57 48 43 39 37 34 27 17 8 4 2 2 2 1 0 0 0 0 0 0 0 0 0 0 0 0 0
0 0 0 0 0 0 0 2 5 14 26 36 35 26 24 38 58 68 73 74 71 64 56 50 45 39 34 31 26 17 8 4 2 2 1 0 0 0 0 0 0 0 0 0 0 0 0 0 0
0 0 0 0 0 0 1 3 10 22 36 40 35 31 40 60 74 80 83 79 71 61 52 49 46 39 32 25 18 13 8 5 3 1 1 1 1 1 0 0 0 0 0 0 0 0 1 0 0
0 0 0 0 0 0 1 6 16 28 37 37 37 47 65 77 82 84 84 78 71 62 52 46 42 38 31 22 15 11 8 4 2 1 1 2 2 1 1 0 0 0 0 0 0 0 0 0 0
0 0 0 0 0 0 1 7 18 26 31 34 46 66 80 83 81 81 78 73 68 63 55 46 39 35 29 23 19 13 7 2 1 0 1 2 1 1 1 0 0 0 0 0 0 0 0 0 0
0 0 0 0 0 0 1 8 18 24 27 36 53 71 80 79 76 72 67 62 60 58 53 46 38 31 26 24 20 13 6 1 0 0 0 0 0 0 0 0 0 0 0 0 0 0 0 0 0
0 0 0 0 0 1 3 10 20 26 30 40 54 65 71 71 67 61 53 49 49 49 46 40 34 28 24 21 15 9 4 1 0 0 0 0 0 0 0 0 0 0 0 0 0 0 0 0 0
0 0 0 0 0 1 5 12 22 29 35 45 51 54 58 59 57 52 45 38 36 37 37 33 26 22 19 14 9 5 2 1 0 0 0 0 0 0 0 0 0 0 0 0 0 0 0 0 0
0 0 0 0 0 1 3 8 17 26 38 47 46 44 45 46 46 46 42 33 25 25 26 24 19 14 11 9 5 2 1 0 0 0 0 0 0 0 0 0 0 0 0 0 0 0 0 0 0
0 0 0 0 0 0 1 4 12 23 36 42 40 38 36 34 33 34 34 29 22 18 17 16 12 7 4 5 3 1 0 0 0 0 0 0 0 0 0 0 0 0 0 0 0 0 0 0 0
0 0 0 0 0 0 0 3 9 19 29 34 34 34 32 26 23 23 25 25 21 18 14 11 8 3 2 2 1 0 0 0 0 0 0 0 0 0 0 0 0 0 0 0 0 0 0 0 0
0 0 0 0 0 0 0 3 8 14 19 25 28 29 28 23 17 17 20 20 19 18 16 12 8 5 4 4 2 1 1 0 0 0 0 0 0 0 0 0 0 0 0 0 0 0 0 0 0
0 0 0 0 0 0 0 2 7 10 11 15 18 21 23 21 16 15 16 16 17 18 18 16 12 10 9 7 4 2 1 0 0 0 0 0 0 0 0 0 0 0 0 0 0 0 0 0 0
0 0 0 0 0 0 0 1 4 8 8 8 9 13 17 17 14 12 12 14 16 19 21 19 16 14 12 9 4 1 0 0 0 0 0 0 0 0 0 0 0 0 0 0 0 0 0 0 0
0 0 0 0 0 0 0 0 2 4 5 5 6 9 13 13 12 11 12 14 16 19 20 19 17 14 12 9 4 1 0 0 0 0 0 0 0 0 0 0 0 0 0 0 0 0 0 0 0
0 0 0 0 0 0 0 0 0 1 2 3 5 8 9 10 11 11 12 14 16 17 16 16 16 15 12 9 5 2 0 0 0 0 0 0 0 0 0 0 0 0 0 0 0 0 0 0 0
0 0 0 0 0 0 0 0 0 0 1 2 4 6 6 7 9 10 11 13 15 15 15 15 15 14 12 9 6 2 0 0 0 0 0 0 0 0 0 0 0 0 0 0 0 0 0 0 0
0 0 0 0 0 0 0 0 0 0 0 1 3 4 3 3 6 9 11 12 14 15 15 14 14 13 11 9 6 2 0 0 0 0 0 0 0 0 0 0 0 0 0 0 0 0 0 0 0
0 0 0 0 0 0 0 0 0 0 0 1 2 3 2 1 3 7 10 11 13 15 16 15 15 13 11 9 6 3 1 1 1 0 0 0 0 0 0 0 0 0 0 0 0 0 0 0 0
0 0 0 0 0 0 0 0 0 0 0 0 1 2 1 0 1 4 7 8 11 14 16 17 16 14 11 8 5 4 3 3 2 1 0 0 0 0 0 0 0 0 0 0 0 0 0 0 0
0 0 0 0 0 0 0 0 0 0 0 0 0 0 0 0 1 2 3 5 8 12 15 16 16 14 10 6 5 5 6 5 4 2 1 1 0 0 0 0 0 0 0 0 0 0 0 0 0
0 0 0 0 0 0 0 0 0 0 0 0 0 0 0 0 1 1 1 2 5 8 10 12 12 11 8 5 5 6 6 6 5 4 3 2 1 0 0 0 0 0 0 0 0 0 0 0 0
0 0 0 0 0 0 0 0 0 0 0 0 1 1 0 1 2 2 1 2 4 6 6 5 6 6 6 5 6 6 6 6 6 5 4 4 2 1 1 0 0 0 0 0 0 0 0 0 0
0 0 0 0 0 0 0 0 0 0 0 1 2 2 1 2 3 3 2 3 5 5 4 3 3 3 4 5 6 6 6 6 6 6 6 5 3 2 2 1 0 0 0 0 0 0 0 0 0

GEFSSGP_con_prob3kmehi_120.txt.gz
EHI
0 0 0 0 0 0 0 0 0 0 0 0 0 0 0 0 0 1 4 8 14 22 24 15 10 12 15 21 24 23 22 19 11 3 0 0 0 0 0 0 0 0 0 0 0 0 0 0 0
0 0 0 0 0 0 0 0 0 0 0 0 0 0 0 0 1 3 7 12 17 23 23 16 12 13 16 19 20 20 17 14 8 2 0 0 0 0 0 0 0 0 0 0 0 0 0 0 0
0 0 0 0 0 0 0 0 0 0 0 0 0 0 0 0 1 5 10 16 20 24 26 22 16 14 16 17 17 16 14 10 5 1 1 1 1 0 0 0 0 0 0 0 0 0 0 0 0
0 0 0 0 0 0 0 0 0 0 0 0 0 0 1 2 4 9 15 19 21 23 26 25 19 14 15 15 15 15 13 9 5 2 2 2 1 0 1 1 0 0 0 0 0 0 0 0 0
0 0 0 0 0 0 0 0 0 0 0 0 0 2 6 10 14 19 22 20 20 20 22 25 21 15 14 14 14 14 13 9 5 3 3 3 1 1 1 1 0 0 0 0 0 0 0 0 0
0 0 0 0 0 0 0 0 0 0 0 0 0 3 13 24 31 32 26 20 16 16 20 25 21 15 13 12 13 15 13 9 5 3 2 2 2 2 1 0 0 0 0 0 0 0 0 0 0
0 0 0 0 0 0 0 0 0 0 0 0 0 4 20 40 49 43 31 21 15 14 21 24 19 13 10 10 11 13 13 9 5 2 1 2 2 2 1 0 0 0 0 0 0 0 0 0 0
0 0 0 0 0 0 0 0 0 0 2 4 4 8 29 56 66 58 44 31 21 17 19 21 17 13 9 8 9 11 11 7 3 1 1 1 1 1 1 0 0 0 0 0 0 0 0 0 0
0 0 0 0 0 0 0 0 0 2 5 9 11 21 46 72 81 76 65 52 40 29 22 19 17 15 11 8 8 7 6 3 1 0 0 0 0 0 0 0 0 0 0 0 0 0 0 0 0
0 0 0 0 0 0 0 0 0 2 6 11 19 38 66 85 89 87 80 71 60 46 31 24 22 21 17 13 10 5 2 1 0 0 0 0 0 0 0 1 0 0 0 0 0 0 0 0 0
0 0 0 0 0 0 0 0 0 1 4 10 23 50 78 91 91 88 82 76 69 56 42 33 31 28 24 20 13 8 4 2 1 1 0 1 1 1 0 1 0 0 0 0 0 0 0 0 0
0 0 0 0 0 0 0 0 0 2 6 13 27 55 80 88 87 82 77 72 66 57 47 42 39 34 32 28 19 12 8 5 4 4 2 1 2 1 0 1 0 0 0 0 0 0 0 0 0
0 0 0 0 0 0 0 0 1 5 9 16 31 55 73 80 78 73 69 65 60 55 49 46 44 40 41 40 29 18 12 8 6 6 4 2 1 1 0 0 0 0 0 0 0 0 0 0 0
0 0 0 0 0 0 0 0 2 7 10 15 30 49 62 68 68 65 62 58 54 52 50 49 48 46 46 42 33 22 15 10 6 5 4 2 0 0 0 0 0 0 0 0 0 0 0 0 0
0 0 0 0 0 0 0 0 3 8 10 16 28 41 52 59 58 55 55 52 47 46 48 47 46 46 43 36 28 21 14 9 7 5 4 1 0 0 0 0 0 0 0 0 0 0 0 0 0
0 0 0 0 0 0 0 1 5 9 11 17 27 37 48 54 51 46 46 46 41 40 43 41 37 37 36 32 27 21 13 9 7 6 3 1 0 0 0 0 0 0 0 0 0 0 0 0 0
0 0 0 0 0 0 0 1 5 8 11 16 26 35 43 48 45 42 41 39 34 34 35 32 28 29 29 31 32 27 19 11 7 5 3 1 0 0 0 0 0 0 0 0 0 0 0 0 0
0 0 0 0 0 0 0 1 4 7 8 14 23 30 36 38 39 39 36 32 28 28 29 25 22 24 26 28 32 31 23 14 7 4 2 1 0 0 0 0 0 0 0 0 0 0 0 0 0
0 0 0 0 0 0 0 1 3 5 7 13 22 27 29 30 32 34 31 26 25 24 22 18 17 20 23 26 29 30 23 13 6 3 2 0 0 0 0 0 0 0 0 0 0 0 0 0 0
0 0 0 0 0 0 0 1 3 5 6 11 18 22 23 24 29 30 27 25 23 21 16 14 14 17 20 24 27 28 23 14 6 2 1 0 0 0 0 0 0 0 0 0 0 0 0 0 0
0 0 0 0 0 0 0 1 4 5 5 9 15 18 18 19 23 25 24 23 21 17 14 13 15 18 22 24 25 24 22 16 8 3 1 1 0 0 0 0 0 0 0 0 0 0 0 0 0
0 0 0 0 0 0 0 1 4 5 4 7 13 16 15 13 16 19 22 20 17 14 13 14 18 22 25 25 23 19 16 13 9 4 2 2 1 0 0 0 0 0 0 0 0 0 0 0 0
0 0 0 0 0 0 0 0 2 3 3 5 10 13 12 10 12 15 18 15 11 10 12 14 19 24 25 22 18 14 10 8 7 5 3 2 1 0 0 0 0 0 0 0 0 0 0 0 0
0 0 0 0 0 0 0 0 0 1 1 2 6 9 9 9 11 13 13 11 9 9 10 13 17 21 23 19 12 9 8 8 7 5 4 2 1 1 1 0 0 0 0 0 0 0 0 0 0
0 0 0 0 0 0 0 0 0 0 0 1 4 7 8 8 12 14 13 10 10 11 12 13 15 18 20 17 10 7 8 9 8 5 3 2 1 2 1 0 0 0 0 0 0 0 0 1 1
0 0 0 0 0 0 0 0 0 0 0 0 3 7 7 8 13 17 14 11 11 13 14 14 14 16 16 13 8 7 9 9 6 4 3 2 1 1 1 0 0 0 0 0 1 1 1 2 2
0 0 0 0 0 0 0 0 0 0 0 1 4 6 6 7 12 15 14 12 11 12 13 13 12 13 13 10 6 7 8 8 6 5 4 4 2 1 0 1 2 1 1 2 4 4 3 3 3
0 0 0 0 0 0 0 0 0 0 0 1 4 6 6 7 9 11 11 12 11 10 9 9 9 11 11 9 6 4 5 6 7 5 5 5 4 2 1 2 3 3 3 3 5 5 4 3 3
0 0 0 0 0 0 0 0 0 0 0 1 4 7 8 8 9 10 9 10 10 8 7 6 7 8 10 9 6 3 2 4 5 4 3 3 4 3 2 2 3 4 4 4 4 5 4 3 3
0 0 0 0 0 0 0 0 0 0 1 2 4 7 9 10 11 11 9 8 8 8 7 6 6 8 8 8 6 5 3 2 3 2 1 2 4 4 3 3 3 4 4 4 4 4 4 3 3

GEFSSGP_con_prob3kmehi_126.txt.gz
EHI
6 14 23 20 12 6 2 0 0 0 0 0 0 1 2 2 2 2 11 37 61 55 39 39 35 21 10 5 4 3 2 1 0 0 0 0 0 0 0 0 0 0 0 0 0 0 0 0 0
6 13 19 14 8 4 1 0 0 0 0 0 0 1 2 2 2 4 17 44 59 47 34 36 35 23 11 6 4 3 2 1 0 0 0 0 0 0 0 1 1 0 0 0 0 0 0 0 0
5 9 8 6 4 2 0 0 0 0 0 0 0 1 1 2 4 10 27 49 56 43 36 38 36 25 13 7 4 2 1 0 0 0 0 0 0 0 1 1 1 0 0 0 0 0 0 0 0
3 3 1 1 1 1 0 0 0 0 0 0 2 4 5 6 11 20 33 49 56 48 41 40 34 25 15 8 4 2 1 0 0 0 1 1 1 1 1 1 1 0 0 0 0 0 0 0 0
2 1 0 0 0 0 0 0 0 0 0 1 5 14 16 16 21 26 34 49 58 52 44 38 33 25 15 8 4 3 1 0 1 2 2 2 2 2 1 0 0 0 0 0 0 0 0 0 0
1 0 0 0 0 0 0 0 0 0 0 1 8 22 28 26 26 27 33 48 57 55 46 37 31 24 15 8 5 3 3 2 2 3 3 3 2 1 0 0 0 0 0 0 0 0 0 0 0
1 0 0 0 0 0 0 0 1 0 0 1 8 26 38 36 31 30 37 46 56 57 47 35 28 22 14 9 6 5 4 3 3 4 4 2 1 0 0 0 0 0 0 0 0 0 0 0 0
1 0 0 0 0 0 0 0 0 0 1 2 10 30 48 48 39 38 42 47 56 59 49 34 27 23 16 9 6 6 5 4 2 3 4 2 0 0 0 0 0 0 0 0 0 0 0 0 0
1 0 0 0 0 0 0 0 0 1 3 7 19 41 57 56 49 46 49 55 63 65 52 36 30 27 17 9 6 7 5 4 3 3 3 2 1 0 0 0 0 0 0 0 0 0 0 0 0
0 0 0 0 0 0 0 0 0 2 6 14 31 51 62 62 59 55 57 66 75 72 56 40 36 31 22 13 9 7 5 4 4 3 3 2 1 1 1 0 0 0 0 0 0 0 0 0 0
0 0 0 1 0 0 0 1 1 2 5 15 33 53 64 67 65 60 62 72 81 77 60 50 47 39 31 24 14 7 4 3 4 3 2 1 2 4 4 2 1 0 0 0 0 0 0 0 0
0 0 0 0 0 0 0 1 1 2 4 13 31 51 65 69 66 62 64 73 81 79 67 61 59 52 46 36 19 7 5 4 4 4 3 3 4 6 7 5 3 1 0 0 0 0 0 0 0
0 0 0 0 0 0 0 0 1 2 4 13 31 51 64 69 68 67 70 77 83 80 73 70 69 64 59 46 28 18 13 9 9 8 6 6 8 11 12 11 6 2 0 0 0 0 0 1 1
0 0 0 0 0 0 0 0 1 3 4 12 31 52 64 71 74 75 78 81 83 81 77 76 74 69 64 52 41 35 28 19 16 14 11 9 12 18 18 14 7 2 1 1 1 0 0 1 1
0 0 0 0 0 0 0 0 2 5 5 11 29 52 69 77 79 79 80 81 81 80 80 77 72 67 62 54 47 44 38 30 25 23 19 13 16 21 18 10 5 3 2 3 2 1 1 1 1
0 0 0 0 0 0 0 1 3 6 6 11 27 50 73 84 82 80 79 79 78 79 78 72 66 63 61 55 48 45 43 41 37 33 26 17 17 18 12 6 5 4 3 2 1 1 2 2 2
0 0 0 0 0 0 0 1 4 7 7 12 25 48 73 85 84 80 77 76 76 77 74 68 63 60 58 53 46 42 45 47 44 39 29 21 18 14 9 8 8 6 3 2 1 1 2 1 1
0 0 0 0 0 0 0 2 5 8 8 13 25 46 71 83 84 80 76 73 74 74 71 66 62 58 54 49 41 38 41 43 40 35 31 26 20 14 10 9 8 7 4 3 2 1 1 0 0
0 0 0 0 0 0 0 2 6 8 10 14 24 44 66 79 81 80 77 74 72 72 69 65 59 54 50 45 38 34 35 36 33 31 31 29 22 15 10 7 6 6 4 3 2 1 0 0 0
0 0 0 0 0 0 0 2 7 10 12 14 21 36 55 68 74 78 78 75 72 70 66 62 56 50 46 43 35 32 34 34 31 30 32 29 22 15 10 7 5 4 5 4 3 1 0 0 0
0 0 0 0 0 0 0 2 8 13 13 12 13 22 38 53 65 73 76 73 70 68 63 57 53 47 42 38 33 30 33 33 30 31 31 28 23 16 11 9 5 5 6 6 4 1 0 0 0
0 0 0 0 0 0 0 2 9 14 13 10 8 13 26 43 56 66 70 68 65 62 58 53 50 44 37 33 30 28 30 30 30 31 33 30 25 18 13 10 7 6 6 5 3 1 1 1 0
0 0 0 0 0 0 0 2 6 10 11 10 9 13 23 37 50 59 62 60 57 55 52 50 47 42 35 30 28 27 28 31 33 34 35 32 26 20 15 11 9 8 5 4 2 1 2 2 2
0 0 0 0 0 0 0 0 2 4 7 9 11 14 21 31 42 51 54 52 50 48 47 45 44 41 36 30 27 29 32 34 35 34 30 27 24 22 17 12 11 10 7 5 4 3 3 4 3
0 0 0 0 0 0 0 0 0 1 3 7 10 13 18 26 34 41 45 46 45 44 42 41 40 39 35 30 28 29 32 33 32 28 23 19 19 20 18 15 14 13 10 9 8 6 4 4 3
0 0 0 0 0 0 0 0 0 1 3 6 8 10 15 23 31 35 39 42 41 40 41 39 37 36 33 29 27 25 27 28 27 26 22 17 15 17 20 20 17 14 11 10 9 7 4 4 4
0 0 0 0 0 0 0 0 0 2 5 6 7 9 14 22 29 31 32 37 39 40 40 38 37 35 31 27 24 21 22 23 22 23 21 16 14 18 24 23 19 15 12 10 9 6 4 4 4
0 0 0 0 0 0 0 0 0 3 5 6 7 10 15 22 28 28 28 33 39 40 37 36 36 34 29 24 21 19 19 19 19 18 16 15 16 20 25 23 18 13 12 11 10 7 5 3 3
0 0 0 0 0 0 0 0 1 2 4 7 10 15 20 25 30 32 30 34 39 38 34 33 33 30 25 22 21 21 21 21 20 18 16 16 19 22 24 22 17 12 10 11 10 8 6 4 3
0 0 0 0 0 0 0 0 1 2 4 8 14 20 24 28 34 37 36 37 40 37 33 32 30 27 23 21 24 25 24 25 24 21 19 19 21 22 22 20 15 11 9 9 8 7 6 4 3

GEFSSGP_con_prob3kmehi_132.txt.gz
EHI
13 6 1 0 0 0 0 0 0 0 1 2 2 1 0 0 1 1 5 21 42 49 39 42 53 48 30 15 6 1 0 0 1 1 1 0 0 0 0 0 0 0 0 0 0 0 0 0 0
5 3 0 0 0 0 0 0 0 1 3 5 4 2 1 2 4 5 10 29 53 56 45 44 53 49 33 17 6 1 0 0 0 0 0 0 0 0 0 0 0 0 0 0 0 0 0 0 0
0 0 0 0 0 0 0 0 0 1 4 7 7 4 2 5 11 16 24 45 63 61 49 49 54 48 33 18 6 0 0 0 0 0 0 0 0 0 0 0 0 0 0 0 0 0 0 0 0
0 0 0 0 0 0 0 0 1 2 6 10 10 5 3 12 26 37 45 59 68 60 48 50 53 44 31 19 8 2 0 0 0 0 0 0 0 0 0 0 0 0 0 0 0 0 0 0 0
0 0 0 0 0 0 0 0 1 6 13 19 16 7 7 26 49 58 58 64 68 59 48 47 49 41 30 22 13 4 0 0 0 0 0 0 0 0 0 0 0 0 0 0 0 0 0 0 0
0 0 0 0 0 0 0 0 2 10 22 30 26 15 15 40 63 65 61 64 65 59 49 43 42 38 30 23 16 8 1 0 0 0 0 0 0 0 0 0 0 0 0 0 0 0 0 0 0
0 0 0 0 0 0 0 1 5 12 25 38 40 28 26 46 63 63 61 63 61 56 49 40 35 33 28 23 18 11 4 1 1 0 0 0 0 0 0 0 0 0 0 0 0 0 0 0 0
0 0 0 0 0 0 1 4 9 15 26 40 45 39 38 53 65 64 62 62 60 54 45 36 31 29 25 21 18 13 7 4 2 1 0 0 0 0 0 0 0 0 0 0 0 0 0 0 0
0 0 0 0 0 1 3 7 11 20 32 41 46 47 52 66 75 72 68 66 63 57 44 34 30 27 24 21 19 15 10 5 3 2 1 0 0 0 0 0 0 0 0 0 0 0 0 0 0
0 0 0 0 0 1 3 6 12 24 35 41 49 57 65 76 83 81 75 71 69 61 48 35 29 25 22 20 19 15 10 5 3 2 1 0 0 0 0 0 0 0 0 0 0 0 0 0 0
0 0 0 0 0 1 3 6 12 22 28 36 50 63 71 78 83 83 78 73 69 61 51 39 30 24 20 18 17 13 8 5 3 1 0 0 0 0 0 0 0 0 0 0 0 0 0 0 0
0 0 0 0 1 2 4 7 12 16 21 31 49 62 69 72 73 75 75 71 66 59 50 42 33 24 18 15 14 11 8 5 3 1 0 0 0 0 0 0 0 0 0 0 0 0 0 0 0
0 0 0 0 1 3 4 6 10 14 21 35 51 61 64 64 63 66 72 73 67 58 48 40 32 24 17 13 11 10 7 4 2 0 0 0 0 0 0 0 0 0 0 0 0 0 0 0 0
0 0 0 0 1 3 3 3 7 14 26 41 51 56 56 55 56 61 71 75 69 60 49 37 31 26 18 12 10 9 6 2 0 0 0 0 1 1 0 0 0 0 0 0 0 0 0 0 0
0 0 0 0 0 1 1 1 4 13 27 41 48 49 48 46 49 58 69 73 69 63 54 42 34 27 19 13 10 7 3 1 0 0 1 1 2 1 0 0 0 0 0 0 0 0 0 0 0
0 0 0 0 0 0 0 0 3 12 26 38 44 46 44 42 45 55 66 70 68 66 62 53 42 31 22 16 12 8 4 2 1 1 2 2 2 1 0 0 0 0 0 0 0 0 0 0 0
0 0 0 0 0 0 0 1 4 14 26 36 44 48 47 46 48 55 64 68 69 69 67 60 50 38 28 21 16 12 8 4 3 3 3 2 1 0 0 0 0 0 0 0 0 0 0 0 0
0 0 0 0 0 0 0 1 5 13 25 36 46 52 53 52 53 58 63 67 69 69 65 59 49 41 32 26 21 16 10 7 5 4 2 1 1 0 0 0 0 0 0 0 0 0 0 0 0
0 0 0 0 0 0 0 1 4 11 22 34 45 53 55 53 55 60 64 66 68 66 60 53 46 39 32 27 23 17 11 8 5 3 1 0 0 0 0 0 0 0 0 0 0 0 0 0 0
0 0 0 0 0 0 0 0 3 10 18 28 39 48 53 53 56 62 67 68 68 64 57 50 44 37 30 26 21 16 10 7 4 1 0 0 0 0 0 0 0 0 0 0 0 0 0 0 0
0 0 0 0 0 0 0 0 1 6 13 22 30 39 46 50 55 62 67 68 64 59 53 47 40 34 28 24 20 14 9 6 2 0 0 0 0 0 0 0 0 0 0 0 0 0 0 0 0
0 0 0 0 0 0 0 0 1 3 9 15 22 30 36 42 50 58 63 63 58 52 46 40 35 31 27 23 18 14 9 5 2 0 0 0 0 1 2 1 0 0 0 0 0 0 0 0 0
0 0 0 0 0 0 0 0 1 3 6 10 16 22 27 34 45 55 58 56 52 47 40 34 32 30 27 21 16 12 8 4 1 1 1 0 0 1 3 2 1 0 0 0 0 0 0 0 0
0 0 0 0 0 0 0 0 1 2 4 8 12 17 22 31 42 50 52 49 46 42 35 30 28 26 24 20 15 11 6 2 0 1 1 0 0 0 2 2 1 0 0 0 0 0 0 0 0
0 0 0 0 0 0 0 0 0 1 4 7 10 13 19 27 37 44 45 43 40 36 32 27 24 22 21 19 15 10 5 2 0 0 0 0 0 0 1 2 2 1 0 1 1 1 0 0 0
0 0 0 0 0 0 0 0 1 2 5 8 9 11 17 23 29 35 37 37 36 34 29 26 23 21 19 18 15 11 6 2 1 0 0 0 0 0 1 2 2 1 0 1 2 2 1 1 1
0 0 0 0 0 0 0 0 1 3 6 8 9 12 15 17 21 25 30 32 33 31 26 23 23 22 19 17 15 11 7 4 1 0 0 0 0 0 0 1 1 1 1 2 3 3 3 2 2
0 0 0 0 0 0 0 0 1 3 6 9 12 13 13 14 18 22 26 27 27 25 22 19 20 20 18 16 14 12 8 5 1 0 0 0 0 0 0 1 2 3 3 4 4 4 3 3 3
0 0 0 0 0 0 0 0 2 4 8 11 13 12 12 14 17 21 23 21 20 20 18 16 16 17 17 15 14 11 7 4 1 0 0 0 0 0 0 1 3 4 5 6 6 5 4 3 2
0 0 0 0 0 0 0 1 3 7 10 13 13 12 12 15 18 20 20 18 18 18 17 15 15 16 16 14 12 10 6 2 1 0 0 0 0 0 0 1 3 5 6 6 6 6 4 2 1